Погода в Петропавловске

Россия / Пермский край     57°39′08″N   54°17′27″E
темп.,
°C
ветер,
м/с
пор.,
м/с
влажн.,
%
обл.,
%
осадки,
мм/ч
давл.,
гПа
погр.,
м
8 марта, пн
пн823:00−15ю379899 0.1 1007164
02:00−17ююв379999 0.0 1004139
05:00−14ююв4995100 0.1 1002317
08:00−13ююв51095100 0.6 999454
11:00−12юв61093100 1.1 997489
14:00−8вюв6993100 0.5 995612
17:00−6всв4695100 1.9 994414
20:00−9ссз2296100 1.0 99674
9 марта, вт
вт923:00−10юв0196100 1.3 99938
02:00−12зюз2397100 0.1 100036
05:00−14зюз239799 0.2 100139
08:00−14сз239791 0.1 100234
11:00−11ссз349289 0.1 1005309
14:00−9сз2283100 0.1 1008599
17:00−9с1187100 0.2 1009353
20:00−12св3796100 0.3 1010198
10 марта, ср
ср1023:00−15ссв5995100 0.3 1012273
02:00−18ссв61095100 0.1 1012331
05:00−23ссв61194100 0.2 1013291
08:00−27ссв6139286 0.0 1013277
11:00−24ссв7138778 0.0 1014347
14:00−19с8148380 0.0 1013524
17:00−18с7138280 0.0 1013661
20:00−21с6148778 0.0 1014516
11 марта, чт
чт1123:00−22с5139280 0.0 1016396
02:00−24ссз499583 0.0 1016170
05:00−25сз479745 0.0 1016111
08:00−24зсз369790 0.0 1016114
11:00−19зсз489495 0.1 1016289
14:00−13зсз5989100 0.1 1015567
17:00−8зсз71190100 0.2 1014904
20:00−9сз51290100 0.2 1015725
12 марта, пт
пт1223:00−11сз51289100 0.3 1017684
02:00−15сз5129098 0.0 1018335
05:00−16сз5119296 0.0 1019365
08:00−15зсз51193100 0.0 1021396
11:00−13зсз61089100 0.0 1022460
14:00−9зсз61179100 0.0 1023612
17:00−8з71278100 0.0 1022820
20:00−10з61485100 0.0 1023631